Volver al catálogo

THOR ABLESTAR DEB

ActivoLEO
NORAD 299·DEBRIS·🇺🇸 United States

Lanzado Jun 29, 1961 desde Cape Canaveral Space Force Station

Loading…

Próximos Pases (próximas 24 horas)

TLE

ActualizadoSource: Space-Track

Época: Sep 5, 2026, 06:43 UTC

1 00299U 61015CQ  26248.28014548 -.00000005  00000-0  65525-4 0  9990
2 00299  67.1666 208.2528 0197951 239.3697 118.7725 13.69045418240022

Sigue THOR ABLESTAR DEB en tiempo real con AllMySat

Download on the App Store